(330934) Natevanwey = 2009 SX228

Discovered at LightBuckets on 2009-09-26 by S. Cullen.
(330934) Natevanwey = 2009 SX228

Nate Van Wey (b. 1950) is the kind of teacher all educators should strive to be like. Mr. Van Wey has taught high school physics at Perry High School for 42 years and deserves to be recognized not only for this accomplishment but for all of the student's lives he has helped shape. [Ref: Minor Planet Circ. 88005]

Orbit

Orbit type: Main Belt

Note: WebGL enabled browser required.

epoch2024-03-31.0
epoch JD2460400.5
perihelion date2022-05-08.55402
perihelion JD2459708.05402
argument of perihelion (°)131.76552
ascending node (°)206.57998
inclination (°)2.20893
eccentricity0.1303046
perihelion distance (AU)2.3196218
Tisserand w.r.t. Jupiter3.4
ΔV w.r.t. Earth (km/sec)9.6
semimajor axis (AU)2.6671659
mean anomaly (°)156.68041
mean daily motion (°/day)0.22627100
aphelion distance (AU)3.015
period (years)4.36
P-vector [x]0.92917789
P-vector [y]-0.34953984
P-vector [z]-0.12020962
Q-vector [x]0.36923031
Q-vector [y]0.86253770
Q-vector [z]0.34597354
absolute magnitude17.38
phase slope0.15
uncertainty0
referenceMPEC 2024-D35
observations used219
oppositions13
arc length (days)9961
first opposition used1996
last opposition used2024
residual rms (arc-secs)0.69
perturbers coarse indicatorM-v
perturbers precise indicator003Ek
first observation date used1996-11-07.0
last observation date used2024-02-15.0
computer nameMPCLINUX
JD of orbit computation2456581.689452
perihelion JD uncertainty (days)3.7650E-04
argument of perihelion uncertainty (°)4.0653E-04
ascending node uncertainty (°)3.9386E-04
inclination uncertainty (°)2.4632E-05
eccentricity uncertainty 2.3199E-07
perihelion distance uncertainty (AU)6.3843E-07
Minimum Orbit Intersection Distances (in AU)
for orbit epoch: 2460400.5, reference: E2024-D35
Mercury1.92343
Venus1.59597
Earth1.31115
Mars0.94348
Jupiter2.34179
Saturn6.18366
Uranus15.4291
Neptune27.2348

Observations

222 total observations over interval: 1996 11 07.32919 – 2024 02 15.325481
These data are available for download (format description).

Date (UT) J2000 RA J2000 Dec Magn Location Ref
1996 11 07.32919 02 58 24.38 +15 42 22.6 20.5 V 691 – Steward Observatory, Kitt Peak-Spacewatch MPS 382274
1996 11 07.35090 02 58 23.32 +15 42 10.3 19.7 V 691 – Steward Observatory, Kitt Peak-Spacewatch MPS 382274
1996 11 07.37332 02 58 21.90 +15 42 09.6 20.5 V 691 – Steward Observatory, Kitt Peak-Spacewatch MPS 382274
2000 08 28.32318 23 58 43.38 +02 18 58.5 20.1 R 807 – Cerro Tololo Observatory, La Serena MPS 327483
2000 08 28.40013 23 58 40.59 +02 18 39.0   807 – Cerro Tololo Observatory, La Serena MPS 327483
2000 09 28.25840 23 35 56.13 -00 38 27.4 20.5 V 691 – Steward Observatory, Kitt Peak-Spacewatch MPS 327483
2000 09 28.27937 23 35 55.16 -00 38 35.1 20.7 V 691 – Steward Observatory, Kitt Peak-Spacewatch MPS 327483
2000 09 28.30200 23 35 54.13 -00 38 43.5 20.6 V 691 – Steward Observatory, Kitt Peak-Spacewatch MPS 327483
2009 09 26.41606 02 42 43.39 +15 43 45.0 19.9 C H11 – LightBuckets Observatory, Rodeo MPS 297174
2009 09 26.42547 02 42 43.10 +15 43 44.3 20.2 C H11 – LightBuckets Observatory, Rodeo MPS 297174
2009 09 26.43449 02 42 42.95 +15 43 42.3 20.2 C H11 – LightBuckets Observatory, Rodeo MPS 297174
2009 09 27.26688 02 42 25.09 +15 41 27.3 20.1 C H11 – LightBuckets Observatory, Rodeo MPS 297174
2009 09 27.27157 02 42 25.03 +15 41 26.1 20.2 C H11 – LightBuckets Observatory, Rodeo MPS 297174
2009 09 27.28069 02 42 24.81 +15 41 24.7 19.6 C H11 – LightBuckets Observatory, Rodeo MPS 297174
2009 10 11.34640 02 34 35.79 +14 49 45.2 20.1 V G96 – Mt. Lemmon Survey MPS 312765
2009 10 11.35902 02 34 35.22 +14 49 41.9 20.4 V G96 – Mt. Lemmon Survey MPS 312765
2009 10 11.36391 02 34 35.00 +14 49 41.2 20.4 V G96 – Mt. Lemmon Survey MPS 312765
2009 10 11.36863 02 34 34.78 +14 49 39.7 20.7 V G96 – Mt. Lemmon Survey MPS 312765
2009 10 24.20884 02 24 07.60 +13 44 41.6   691 – Steward Observatory, Kitt Peak-Spacewatch MPS 313575
2009 10 24.22603 02 24 06.70 +13 44 35.9   691 – Steward Observatory, Kitt Peak-Spacewatch MPS 313575
2009 10 24.24320 02 24 05.71 +13 44 30.3   691 – Steward Observatory, Kitt Peak-Spacewatch MPS 313575
2009 11 19.19230 02 03 00.10 +11 31 15.9 20.5 V G96 – Mt. Lemmon Survey MPS 313575
2009 11 19.19758 02 02 59.89 +11 31 14.5 20.6 V G96 – Mt. Lemmon Survey MPS 313575
2009 11 19.20278 02 02 59.67 +11 31 13.5 20.4 V G96 – Mt. Lemmon Survey MPS 313575
2009 11 19.20804 02 02 59.46 +11 31 11.9 20.3 V G96 – Mt. Lemmon Survey MPS 313575
2011 01 28.32958 09 14 44.48 +12 42 02.5 21.6 V G96 – Mt. Lemmon Survey MPS 368595
2011 01 28.33698 09 14 44.05 +12 42 04.5 22.2 V G96 – Mt. Lemmon Survey MPS 368595
2011 01 28.34450 09 14 43.62 +12 42 06.1 21.7 V G96 – Mt. Lemmon Survey MPS 368595
2011 01 28.35199 09 14 43.22 +12 42 08.0 21.3 V G96 – Mt. Lemmon Survey MPS 368595
2012 04 19.32817 14 26 00.56 -13 55 46.9 21.2 V G96 – Mt. Lemmon Survey MPS 420881
2012 04 19.33689 14 26 00.13 -13 55 43.8 21.3 V G96 – Mt. Lemmon Survey MPS 420881
2012 04 19.34560 14 25 59.66 -13 55 42.2 21.3 V G96 – Mt. Lemmon Survey MPS 420881
2012 04 19.35424 14 25 59.19 -13 55 39.3 21.2 V G96 – Mt. Lemmon Survey MPS 420881
2012 05 21.34753 14 00 14.272 -11 20 19.17 21.4 w F51 – Pan-STARRS 1, Haleakala MPS 424988
2012 05 21.36203 14 00 13.707 -11 20 15.46 21.4 w F51 – Pan-STARRS 1, Haleakala MPS 424988
2012 05 21.37653 14 00 13.128 -11 20 12.27 21.4 w F51 – Pan-STARRS 1, Haleakala MPS 424988
2012 05 21.39107 14 00 12.559 -11 20 08.84 21.5 w F51 – Pan-STARRS 1, Haleakala MPS 424988
2013 08 15.49872 23 15 39.247 -01 43 06.54 20.4 w F51 – Pan-STARRS 1, Haleakala MPS 474336
2013 08 15.51426 23 15 38.705 -01 43 09.89 20.4 w F51 – Pan-STARRS 1, Haleakala MPS 474336
2013 08 15.52984 23 15 38.168 -01 43 13.13 20.4 w F51 – Pan-STARRS 1, Haleakala MPS 474336
2013 08 15.54539 23 15 37.623 -01 43 16.52 20.5 w F51 – Pan-STARRS 1, Haleakala MPS 474336
2013 08 28.34174 23 07 14.97 -02 41 11.2 21.2 V 703 – Catalina Sky Survey MPS 474859
2013 08 28.34948 23 07 14.72 -02 41 13.4 20.5 V 703 – Catalina Sky Survey MPS 474859
2013 08 28.35727 23 07 14.30 -02 41 16.5 20.4 V 703 – Catalina Sky Survey MPS 474859
2013 08 28.36503 23 07 14.09 -02 41 18.2 19.7 V 703 – Catalina Sky Survey MPS 474859
2013 09 03.41937 23 02 33.249 -03 15 11.04 20.0 w F51 – Pan-STARRS 1, Haleakala MPS 476107
2013 09 03.43425 23 02 32.504 -03 15 16.17 20.0 w F51 – Pan-STARRS 1, Haleakala MPS 476107
2013 09 03.44914 23 02 31.758 -03 15 21.41 20.0 w F51 – Pan-STARRS 1, Haleakala MPS 476107
2013 09 23.25773 22 47 42.58 -05 10 38.4 19.9 V G96 – Mt. Lemmon Survey MPS 478677
2013 09 23.26368 22 47 42.36 -05 10 40.8 19.8 V G96 – Mt. Lemmon Survey MPS 478677
2013 09 23.27004 22 47 42.08 -05 10 42.8 19.9 V G96 – Mt. Lemmon Survey MPS 478677
2013 09 23.27591 22 47 41.82 -05 10 44.6 20.0 V G96 – Mt. Lemmon Survey MPS 478677
2013 10 12.15027 22 39 46.25 -06 28 31.5 21.0 V G96 – Mt. Lemmon Survey MPS 482239
2013 10 12.15852 22 39 46.12 -06 28 32.7 21.1 V G96 – Mt. Lemmon Survey MPS 482239
2013 10 12.16672 22 39 46.03 -06 28 33.5 21.0 V G96 – Mt. Lemmon Survey MPS 482239
2013 10 12.17495 22 39 45.92 -06 28 34.7 20.5 V G96 – Mt. Lemmon Survey MPS 482239
2016 02 10.53231 12 45 27.070 -06 23 37.17 22.2 w F51 – Pan-STARRS 1, Haleakala MPS 682172
2016 02 10.55823 12 45 26.825 -06 23 36.31 22.3 w F51 – Pan-STARRS 1, Haleakala MPS 682172
2016 02 10.57121 12 45 26.681 -06 23 35.47 22.1 w F51 – Pan-STARRS 1, Haleakala MPS 682172
2016 03 10.41092 12 32 34.483 -04 55 41.87 21.6 w F51 – Pan-STARRS 1, Haleakala MPS 692329
2016 03 10.42319 12 32 33.927 -04 55 38.20 21.8 w F51 – Pan-STARRS 1, Haleakala MPS 692329
2016 03 10.43543 12 32 33.396 -04 55 34.71 21.6 w F51 – Pan-STARRS 1, Haleakala MPS 692329
2016 03 10.44764 12 32 32.854 -04 55 30.80 21.6 w F51 – Pan-STARRS 1, Haleakala MPS 692329
2016 03 11.46693 12 31 48.872 -04 50 25.09 21.6 w F51 – Pan-STARRS 1, Haleakala MPS 695655
2016 03 11.48007 12 31 48.283 -04 50 21.24 21.6 w F51 – Pan-STARRS 1, Haleakala MPS 695655
2016 03 11.50638 12 31 47.065 -04 50 13.01 21.8 w F51 – Pan-STARRS 1, Haleakala MPS 695655
2016 03 13.43048 12 30 22.101 -04 40 18.42 21.5 w F51 – Pan-STARRS 1, Haleakala MPS 695655
2016 03 13.44554 12 30 21.393 -04 40 13.57 21.7 w F51 – Pan-STARRS 1, Haleakala MPS 695655
2016 03 13.46058 12 30 20.698 -04 40 08.96 21.7 w F51 – Pan-STARRS 1, Haleakala MPS 695655
2016 04 01.37528 12 15 06.803 -02 51 01.66 21.4 w F51 – Pan-STARRS 1, Haleakala MPS 698445
2016 04 01.38759 12 15 06.185 -02 50 57.34 21.4 w F51 – Pan-STARRS 1, Haleakala MPS 698445
2016 04 01.39993 12 15 05.557 -02 50 52.88 21.4 w F51 – Pan-STARRS 1, Haleakala MPS 698445
2016 04 02.36803 12 14 18.626 -02 45 07.58 21.4 w F51 – Pan-STARRS 1, Haleakala MPS 700920
2016 04 02.37969 12 14 18.017 -02 45 03.69 21.5 w F51 – Pan-STARRS 1, Haleakala MPS 700920
2016 04 02.39137 12 14 17.435 -02 44 59.31 21.4 w F51 – Pan-STARRS 1, Haleakala MPS 700920
2016 04 02.40306 12 14 16.851 -02 44 55.20 21.3 w F51 – Pan-STARRS 1, Haleakala MPS 700920
2016 04 10.34573 12 08 07.610 -01 59 04.66 21.9 w F51 – Pan-STARRS 1, Haleakala MPS 703519
2016 04 10.35865 12 08 07.041 -01 59 00.57 21.4 w F51 – Pan-STARRS 1, Haleakala MPS 703519
2016 04 10.37160 12 08 06.453 -01 58 56.23 21.5 w F51 – Pan-STARRS 1, Haleakala MPS 703519
2016 04 10.46225 12 08 02.310 -01 58 25.75 21.5 w F51 – Pan-STARRS 1, Haleakala MPS 703519
2016 04 10.47528 12 08 01.726 -01 58 21.65 21.6 w F51 – Pan-STARRS 1, Haleakala MPS 703519
2016 04 10.48860 12 08 01.094 -01 58 16.97 21.7 w F51 – Pan-STARRS 1, Haleakala MPS 703519
2017 06 21.51498 19 39 22.704 -17 52 12.34 20.7 w F51 – Pan-STARRS 1, Haleakala MPS 802373
2017 06 21.53654 19 39 21.791 -17 52 13.08 20.6 w F51 – Pan-STARRS 1, Haleakala MPS 802373
2017 06 21.54734 19 39 21.321 -17 52 13.37 20.6 w F51 – Pan-STARRS 1, Haleakala MPS 802373
2018 11 08.30901 04 55 57.99 +20 32 33.2 21.2 G G96 – Mt. Lemmon Survey MPS 938599
